AFR32DM LFPG-LOWW

Flight info

Callsign AFR32DM
Flight time N/A
Altitude 37000
Route RANUX6H/08L RANUX DCT LIMGO DCT BOMBI DCT TENLO DCT DEXIT DCT VENEN VENEN3W
Aircraft A320/M-SDE2E3FGIJ1RWY/HB1

Departure

Time N/A
Airport Charles de Gaulle International Airport (LFPG)

Arrival

Time 2026-04-24 21:26
Airport Vienna International Airport (LOWW)
Time Latitude Longitude Altitude Speed Heading
2026-04-24 20:45 49.36499 11.63242 37143 ft 470 kts 114°
2026-04-24 20:45 49.33918 11.72520 37150 ft 470 kts 114°
2026-04-24 20:46 49.31345 11.81729 37144 ft 470 kts 114°
2026-04-24 20:46 49.28764 11.90929 37143 ft 470 kts 114°
2026-04-24 20:47 49.26178 12.00122 37133 ft 470 kts 114°
2026-04-24 20:47 49.23588 12.09298 37147 ft 470 kts 114°
2026-04-24 20:48 49.20989 12.18463 37143 ft 470 kts 114°
2026-04-24 20:48 49.18378 12.27628 37140 ft 470 kts 114°
2026-04-24 20:49 49.15764 12.36792 37131 ft 470 kts 114°
2026-04-24 20:49 49.13163 12.45836 37130 ft 470 kts 114°
2026-04-24 20:50 49.10536 12.54968 37134 ft 470 kts 114°
2026-04-24 20:50 49.07904 12.64085 37127 ft 470 kts 114°
2026-04-24 20:51 49.05260 12.73201 37124 ft 470 kts 114°
2026-04-24 20:51 49.02607 12.82291 37111 ft 469 kts 114°
2026-04-24 20:52 48.99949 12.91359 37128 ft 468 kts 114°
2026-04-24 20:52 48.97323 13.00337 37129 ft 467 kts 114°
2026-04-24 20:53 48.94677 13.09366 37134 ft 467 kts 114°
2026-04-24 20:53 48.92014 13.18366 37131 ft 467 kts 114°
2026-04-24 20:54 48.89340 13.27353 37134 ft 466 kts 114°
2026-04-24 20:54 48.86667 13.36327 37132 ft 466 kts 114°
2026-04-24 20:55 48.83989 13.45290 37131 ft 466 kts 114°
2026-04-24 20:55 48.81321 13.54189 37116 ft 466 kts 114°
2026-04-24 20:56 48.79960 13.58723 36860 ft 466 kts 114°
2026-04-24 20:56 48.78613 13.63187 36594 ft 466 kts 114°
2026-04-24 20:56 48.77263 13.67650 36334 ft 465 kts 114°
2026-04-24 20:56 48.75998 13.72093 36076 ft 465 kts 109°
2026-04-24 20:57 48.74929 13.76715 35833 ft 465 kts 108°
2026-04-24 20:57 48.73861 13.81340 35582 ft 465 kts 109°
2026-04-24 20:57 48.72775 13.86018 35059 ft 464 kts 109°
2026-04-24 20:57 48.71705 13.90603 34549 ft 461 kts 109°
2026-04-24 20:58 48.70653 13.95103 33993 ft 458 kts 109°
2026-04-24 20:58 48.69594 13.99633 33431 ft 455 kts 109°
2026-04-24 20:58 48.68542 14.04127 32914 ft 451 kts 109°
2026-04-24 20:58 48.67495 14.08575 32391 ft 447 kts 109°
2026-04-24 20:59 48.66462 14.12948 31884 ft 438 kts 109°
2026-04-24 20:59 48.65443 14.17270 31382 ft 433 kts 109°
2026-04-24 20:59 48.64433 14.21546 30885 ft 430 kts 109°
2026-04-24 20:59 48.63428 14.25790 30384 ft 428 kts 109°
2026-04-24 21:00 48.62414 14.30060 29871 ft 425 kts 109°
2026-04-24 21:00 48.61417 14.34237 29403 ft 420 kts 109°
2026-04-24 21:00 48.60430 14.38359 28921 ft 415 kts 109°
2026-04-24 21:00 48.59455 14.42425 28467 ft 411 kts 109°
2026-04-24 21:01 48.58494 14.46429 28037 ft 407 kts 108°
2026-04-24 21:01 48.57534 14.50432 27603 ft 404 kts 108°
2026-04-24 21:01 48.56763 14.54469 27178 ft 398 kts 99°
2026-04-24 21:01 48.56434 14.58587 26754 ft 392 kts 91°
2026-04-24 21:02 48.56245 14.62674 26336 ft 389 kts 91°
2026-04-24 21:02 48.56049 14.66729 25934 ft 386 kts 92°
2026-04-24 21:02 48.55846 14.70748 25501 ft 383 kts 91°
2026-04-24 21:02 48.55645 14.74747 25086 ft 380 kts 91°
2026-04-24 21:03 48.55448 14.78722 24624 ft 379 kts 91°
2026-04-24 21:03 48.55252 14.82677 24183 ft 377 kts 91°
2026-04-24 21:03 48.55052 14.86626 23729 ft 377 kts 91°
2026-04-24 21:03 48.54851 14.90559 23220 ft 376 kts 91°
2026-04-24 21:04 48.54650 14.94476 22755 ft 373 kts 91°
2026-04-24 21:04 48.54450 14.98372 22319 ft 371 kts 91°
2026-04-24 21:04 48.54251 15.02250 21855 ft 370 kts 91°
2026-04-24 21:04 48.54053 15.06108 21393 ft 368 kts 91°
2026-04-24 21:05 48.53855 15.09949 20969 ft 366 kts 91°
2026-04-24 21:05 48.53652 15.13776 20534 ft 365 kts 91°
2026-04-24 21:05 48.53430 15.17575 20152 ft 362 kts 95°
2026-04-24 21:05 48.52861 15.21227 20065 ft 352 kts 102°
2026-04-24 21:06 48.52249 15.24738 19985 ft 340 kts 102°
2026-04-24 21:06 48.51655 15.28188 19913 ft 341 kts 102°
2026-04-24 21:06 48.51062 15.31648 19847 ft 341 kts 101°
2026-04-24 21:06 48.50466 15.35110 19776 ft 341 kts 102°
2026-04-24 21:07 48.49865 15.38573 19697 ft 341 kts 102°
2026-04-24 21:07 48.49261 15.42029 19623 ft 341 kts 102°
2026-04-24 21:07 48.48636 15.45596 19417 ft 360 kts 102°
2026-04-24 21:07 48.47990 15.49261 19123 ft 363 kts 102°
2026-04-24 21:08 48.47338 15.52937 18795 ft 362 kts 102°
2026-04-24 21:08 48.46687 15.56598 18514 ft 361 kts 102°
2026-04-24 21:08 48.46035 15.60246 18217 ft 360 kts 102°
2026-04-24 21:08 48.45387 15.63874 17887 ft 358 kts 102°
2026-04-24 21:09 48.44741 15.67485 17570 ft 355 kts 102°
2026-04-24 21:09 48.44100 15.71064 17263 ft 353 kts 102°
2026-04-24 21:09 48.43465 15.74623 16951 ft 351 kts 102°
2026-04-24 21:09 48.42834 15.78167 16650 ft 349 kts 102°
2026-04-24 21:10 48.42205 15.81684 16349 ft 348 kts 102°
2026-04-24 21:10 48.41788 15.84009 16149 ft 347 kts 102°
2026-04-24 21:10 48.41158 15.87501 15852 ft 345 kts 102°
2026-04-24 21:10 48.40529 15.90971 15556 ft 343 kts 102°
2026-04-24 21:11 48.39902 15.94424 15281 ft 341 kts 102°
2026-04-24 21:11 48.39281 15.97863 15033 ft 340 kts 102°
2026-04-24 21:11 48.38660 16.01291 14745 ft 339 kts 102°
2026-04-24 21:11 48.38039 16.04696 14456 ft 337 kts 102°
2026-04-24 21:12 48.37420 16.08088 14174 ft 335 kts 102°
2026-04-24 21:12 48.36804 16.11465 13899 ft 334 kts 102°
2026-04-24 21:12 48.36192 16.14812 13588 ft 330 kts 102°
2026-04-24 21:12 48.35593 16.18071 13265 ft 317 kts 102°
2026-04-24 21:13 48.35013 16.21228 12958 ft 311 kts 102°
2026-04-24 21:13 48.34442 16.24337 12644 ft 308 kts 102°
2026-04-24 21:13 48.33871 16.27430 12337 ft 306 kts 102°
2026-04-24 21:13 48.33302 16.30510 12031 ft 305 kts 102°
2026-04-24 21:14 48.32736 16.33574 11731 ft 304 kts 102°
2026-04-24 21:14 48.32168 16.36627 11437 ft 303 kts 102°
2026-04-24 21:14 48.31602 16.39671 11143 ft 302 kts 102°
2026-04-24 21:14 48.31038 16.42696 10858 ft 299 kts 102°
2026-04-24 21:15 48.30456 16.45678 10563 ft 297 kts 107°
2026-04-24 21:15 48.29606 16.48503 10305 ft 296 kts 117°
2026-04-24 21:15 48.28454 16.51036 10071 ft 293 kts 128°
2026-04-24 21:15 48.27047 16.53212 9887 ft 287 kts 139°
2026-04-24 21:16 48.25486 16.55020 9754 ft 281 kts 143°
2026-04-24 21:16 48.23929 16.56768 9616 ft 279 kts 143°
2026-04-24 21:16 48.22379 16.58515 9490 ft 278 kts 143°
2026-04-24 21:16 48.20837 16.60258 9357 ft 280 kts 143°
2026-04-24 21:17 48.19281 16.62267 9233 ft 304 kts 133°
2026-04-24 21:17 48.17935 16.64743 9112 ft 308 kts 122°
2026-04-24 21:17 48.16894 16.67536 8975 ft 307 kts 114°
2026-04-24 21:17 48.15957 16.70416 8845 ft 307 kts 114°
2026-04-24 21:18 48.15012 16.73288 8715 ft 307 kts 114°
2026-04-24 21:18 48.14063 16.76152 8582 ft 307 kts 114°
2026-04-24 21:18 48.13113 16.79006 8455 ft 306 kts 115°
2026-04-24 21:18 48.12163 16.81860 8330 ft 306 kts 115°
2026-04-24 21:19 48.11212 16.84716 8198 ft 306 kts 115°
2026-04-24 21:19 48.10266 16.87557 8067 ft 303 kts 115°
2026-04-24 21:19 48.09327 16.90346 7725 ft 300 kts 118°
2026-04-24 21:19 48.07979 16.92721 7309 ft 302 kts 145°
2026-04-24 21:20 48.04132 16.93952 6313 ft 280 kts 200°
2026-04-24 21:20 48.02471 16.92615 5798 ft 269 kts 229°
2026-04-24 21:20 48.01458 16.90371 5251 ft 256 kts 257°
2026-04-24 21:21 48.01256 16.87787 4952 ft 251 kts 281°
2026-04-24 21:21 48.01778 16.85339 4640 ft 248 kts 298°
2026-04-24 21:21 48.02539 16.83044 4311 ft 244 kts 299°
2026-04-24 21:21 48.03273 16.80834 3986 ft 230 kts 298°
2026-04-24 21:22 48.03962 16.78742 3700 ft 220 kts 298°
2026-04-24 21:22 48.04636 16.76696 3409 ft 219 kts 298°
2026-04-24 21:22 48.05306 16.74658 3111 ft 216 kts 298°
2026-04-24 21:22 48.05936 16.72737 2845 ft 194 kts 298°
2026-04-24 21:23 48.06502 16.71010 2586 ft 176 kts 299°
2026-04-24 21:23 48.07015 16.69446 2365 ft 162 kts 299°
2026-04-24 21:23 48.07503 16.67959 2148 ft 157 kts 299°
2026-04-24 21:23 48.07962 16.66556 1955 ft 143 kts 298°
2026-04-24 21:24 48.08387 16.65261 1756 ft 136 kts 298°
2026-04-24 21:24 48.08802 16.63995 1582 ft 135 kts 298°
2026-04-24 21:24 48.09213 16.62738 1405 ft 136 kts 299°
2026-04-24 21:24 48.09628 16.61470 1217 ft 136 kts 298°
2026-04-24 21:25 48.10041 16.60199 1039 ft 136 kts 296°
2026-04-24 21:25 48.10447 16.58931 867 ft 136 kts 295°
2026-04-24 21:25 48.10861 16.57668 668 ft 134 kts 296°
2026-04-24 21:25 48.11264 16.56471 615 ft 117 kts 296°
2026-04-24 21:26 48.11505 16.55725 623 ft 45 kts 295°
2026-04-24 21:26 48.11629 16.55381 617 ft 27 kts 312°
2026-04-24 21:26 48.11739 16.55227 613 ft 19 kts 317°
2026-04-24 21:26 48.11804 16.55152 609 ft 9 kts 332°
2026-04-24 21:27 48.11846 16.55131 613 ft 3 kts
2026-04-24 21:27 48.11863 16.55139 609 ft 3 kts 19°